Location: Habighorst
(52.7089°N, 10.2278°E)
Time: 06:03:29
(UTC+00:00)

Cosmos 1140 Rocket - Pass Details

Date: 13 January 2026
Orbit: 739 x 763 km, 74.1° (Epoch: 18 February)

Event Time Altitude Azimuth Distance (km) Brightness Sun altitude
Rises 06:18:54 0° 211° (SSW) 3,164 6.6 -9.6°
Reaches altitude 10° 06:21:15 10° 214° (SSW) 2,246 5.8 -9.2°
Maximum altitude 06:26:19 70° 298° (WNW) 792 3.4 -8.5°
Drops below altitude 10° 06:31:27 10° 22° (NNE) 2,272 5.9 -7.8°
Sets 06:33:50 0° 25° (NNE) 3,203 6.7 -7.5°
